Location: Schommer Observatory
(40.5200°N, 74.4500°W)
Time: 13:46:13
(UTC-04:00)

ISS - Visible Passes

Search period start: 28 March 2017 00:00
Search period end: 07 April 2017 00:00
Orbit: 399 x 409 km, 51.6° (Epoch: 29 March)

Date Brightness Start Highest point End Pass type
(mag) Time Alt. Az. Time Alt. Az. Time Alt. Az.
28 Mar -2.6 21:09:01 10° W 21:12:06 39° NNW 21:12:44 34° N visible
29 Mar -3.6 20:16:26 10° WSW 20:19:40 70° NW 20:22:56 10° NE visible
29 Mar -0.8 21:54:23 10° WNW 21:55:50 16° NW 21:55:50 16° NW visible
30 Mar -1.5 21:01:22 10° WNW 21:04:00 22° NNW 21:06:02 13° NNE visible
31 Mar -2.2 20:08:27 10° W 20:11:26 33° NNW 20:14:27 10° NE visible
31 Mar -0.8 21:47:03 10° NW 21:48:40 13° N 21:48:42 13° N visible
01 Apr -1.0 20:53:54 10° NW 20:55:58 15° NNW 20:58:02 10° NNE visible
02 Apr -1.4 20:00:48 10° WNW 20:03:18 20° NNW 20:05:49 10° NNE visible
02 Apr -0.9 21:39:25 10° NNW 21:40:44 12° N 21:41:00 12° N visible
03 Apr -1.0 20:46:28 10° NW 20:47:58 12° N 20:49:29 10° NNE visible
04 Apr -1.1 19:53:19 10° NW 19:55:13 14° NNW 19:57:07 10° NNE visible
04 Apr -1.1 21:31:09 10° NNW 21:32:45 13° N 21:32:59 13° NNE visible
05 Apr -1.0 20:38:38 10° NNW 20:39:57 12° N 20:41:18 10° NNE visible
05 Apr -0.5 22:14:45 10° NNW 22:15:14 13° NNW 22:15:14 13° NNW visible
06 Apr -1.5 21:22:29 10° NNW 21:24:40 16° NNE 21:24:49 16° NNE visible
